EW6420 Weather Reports


Display with metric or nautical units.
time (UTC)temp
F
wind
direction
speed
MPH
gust
MPH
rain 1hr
in
rain 24hr
in
rain mn
in
humidity
%
barometer
mb
20260508171503 53 21 1.0 4.0 0.00 0.00 0.00 71 1019.8
20260508170005 53 16 0.0 2.0 0.00 0.00 0.00 73 1019.6
20260508163003 51 206 0.0 2.0 0.00 0.00 0.00 74 1019.2
20260508161503 51 206 0.0 2.0 0.00 0.00 0.00 74 1019.1
20260508160002 51 206 0.0 2.0 0.00 0.00 0.00 75 1019.2
20260508154502 51 206 0.0 3.0 0.00 0.00 0.00 75 1019.2
20260508153001 50 152 0.0 2.0 0.00 0.00 0.00 78 1019.4
20260508150006 49 65 0.0 2.0 0.00 0.00 0.00 81 1019.6
20260508144502 49 65 0.0 2.0 0.00 0.00 0.00 82 1019.4
20260508143005 49 87 0.0 2.0 0.00 0.00 0.00 82 1019.2
20260508131501 49 87 0.0 0.0 0.00 0.00 0.00 83 1017.9
20260508130005 49 87 0.0 0.0 0.00 0.00 0.00 83 1017.8
20260508124501 49 87 0.0 0.0 0.00 0.00 0.00 83 1017.6
20260508121505 49 87 0.0 0.0 0.00 0.00 0.00 84 1017.4
20260508113005 50 87 0.0 0.0 0.00 0.00 0.00 83 1016.9
20260508111503 50 87 0.0 0.0 0.00 0.00 0.00 83 1016.8
20260508110005 50 87 0.0 0.0 0.00 0.00 0.00 82 1016.6
20260508103002 50 87 0.0 0.0 0.00 0.00 0.00 83 1016.4
20260508101501 50 87 0.0 0.0 0.00 0.00 0.00 83 1016.3
20260508100003 50 87 0.0 0.0 0.00 0.00 0.00 83 1016.4
20260508094501 50 87 0.0 0.0 0.00 0.00 0.00 84 1016.3
20260508093002 50 87 0.0 0.0 0.00 0.00 0.00 83 1016.2
20260508091501 50 87 0.0 0.0 0.00 0.00 0.00 83 1016.2
20260508090009 50 87 0.0 0.0 0.00 0.00 0.00 82 1016.2
20260508084502 50 87 0.0 0.0 0.00 0.00 0.00 82 1016.2
20260508081502 51 87 0.0 0.0 0.00 0.00 0.00 81 1016.0
20260508080006 51 87 0.0 0.0 0.00 0.00 0.00 80 1016.1
20260508074505 52 87 0.0 0.0 0.00 0.00 0.00 79 1016.0
20260508073004 52 87 0.0 0.0 0.00 0.00 0.00 79 1016.0
20260508071504 52 87 0.0 0.0 0.00 0.00 0.00 79 1016.1
20260508070008 52 87 0.0 0.0 0.00 0.00 0.00 78 1016.2
20260508064503 52 87 0.0 0.0 0.00 0.00 0.00 78 1016.1
20260508063004 53 87 0.0 0.0 0.00 0.00 0.00 77 1016.0
20260508060004 53 87 0.0 0.0 0.00 0.00 0.00 76 1016.1
20260508054503 54 87 0.0 0.0 0.00 0.00 0.00 75 1016.2
20260508051505 55 87 0.0 0.0 0.00 0.00 0.00 73 1016.3
20260508050007 55 87 0.0 0.0 0.00 0.00 0.00 71 1016.3
20260508044505 56 87 0.0 0.0 0.00 0.00 0.00 71 1016.3
20260508041505 57 87 0.0 0.0 0.00 0.00 0.00 67 1016.3
20260508040004 58 87 0.0 0.0 0.00 0.00 0.00 66 1016.3
20260508034504 59 87 0.0 0.0 0.00 0.00 0.00 63 1016.2
20260508033005 60 87 0.0 0.0 0.00 0.00 0.00 61 1016.1
20260508031505 61 87 0.0 0.0 0.00 0.00 0.00 61 1016.1
20260508030007 61 87 0.0 0.0 0.00 0.00 0.00 58 1016.1
20260508024506 62 87 0.0 1.0 0.00 0.00 0.00 56 1016.2
20260508021504 62 87 0.0 1.0 0.00 0.00 0.00 54 1016.2
20260508020006 63 87 0.0 3.0 0.00 0.00 0.00 54 1016.4
20260508014504 63 94 0.0 2.0 0.00 0.00 0.00 54 1016.4
20260508013004 63 94 0.0 2.0 0.00 0.00 0.00 54 1016.4
20260508011505 63 87 0.0 2.0 0.00 0.00 0.00 54 1016.7
20260508010005 64 100 0.0 2.0 0.00 0.00 0.00 54 1016.8
20260508004502 64 100 0.0 4.0 0.00 0.00 0.00 54 1016.8
20260508003002 64 92 0.0 3.0 0.00 0.00 0.00 54 1016.8
20260508001502 64 99 0.0 2.0 0.00 0.00 0.00 53 1017.0
20260508000004 64 88 0.0 2.0 0.00 0.00 0.00 54 1017.0
20260507233002 63 164 1.0 4.0 0.00 0.00 0.00 54 1017.1
20260507230007 62 92 0.0 3.0 0.00 0.00 0.00 56 1017.4
20260507224505 62 158 0.0 2.0 0.00 0.00 0.00 57 1017.5
20260507223005 62 25 1.0 2.0 0.00 0.00 0.00 56 1017.6
20260507221504 62 80 0.0 2.0 0.00 0.00 0.00 57 1017.9
20260507220008 62 80 1.0 5.0 0.00 0.00 0.00 57 1017.9
20260507213002 61 99 0.0 3.0 0.00 0.00 0.00 57 1018.4
20260507211502 61 359 0.0 3.0 0.00 0.00 0.00 58 1018.4
20260507210005 61 84 1.0 4.0 0.00 0.00 0.00 59 1018.6
20260507203004 59 139 0.0 2.0 0.00 0.00 0.00 59 1018.9
20260507201503 59 137 1.0 4.0 0.00 0.00 0.00 61 1019.0
20260507200004 58 103 0.0 2.0 0.00 0.00 0.00 61 1019.2
20260507194506 58 169 0.0 2.0 0.00 0.00 0.00 63 1019.1
20260507191504 57 165 0.0 2.0 0.00 0.00 0.00 63 1019.4
20260507190006 57 118 0.0 2.0 0.00 0.00 0.00 64 1019.5
20260507184504 57 161 0.0 2.0 0.00 0.00 0.00 65 1019.6
20260507183001 57 92 0.0 2.0 0.00 0.00 0.00 65 1019.7
20260507181502 56 84 0.0 2.0 0.00 0.00 0.00 66 1019.8
20260507180005 56 87 0.0 1.0 0.00 0.00 0.00 67 1019.9
20260507174504 56 87 0.0 2.0 0.00 0.00 0.00 66 1020.0
20260507173005 56 118 0.0 2.0 0.00 0.00 0.00 66 1019.9